Vorticity
5 11 7 7 8 7 11 9 9 12 12 14 15 3 19 11 11 2 -4 2 6 8 14 22 15 14 13 8 13 21 7 10 11 4 8 9 10 8 11 9 7 7 9 10 8 10 16 9 10 5 6 8 11 7
5 10 8 6 6 9 6 10 9 10 18 9 23 10 8 11 5 1 1 -4 3 11 4 17 17 10 11 10 12 9 -13 24 6 5 7 9 9 7 6 9 11 16 1 7 8 6 11 8 7 8 7 7 6 6
6 8 11 7 5 8 9 9 11 10 9 22 7 20 7 9 7 10 8 8 6 8 12 21 18 12 14 11 8 2 3 6 5 10 1 7 9 9 9 14 7 16 5 0 8 17 10 6 4 4 9 9 11 9
7 7 12 7 6 7 11 10 10 11 9 10 17 21 11 -0 15 -5 10 1 5 6 8 14 16 12 16 13 7 6 15 0 15 -0 10 2 4 15 4 5 7 10 8 16 8 7 8 9 10 7 8 8 8 10
9 8 11 10 6 7 10 12 10 9 13 9 17 10 16 6 29 -0 13 2 8 7 -6 8 19 15 14 12 8 10 6 6 6 10 2 7 11 6 13 12 22 21 7 10 6 11 9 8 7 8 8 7 6 5
11 9 11 10 7 5 8 12 12 9 14 10 9 16 18 6 26 0 14 3 10 9 5 16 26 17 13 11 10 7 9 12 4 8 7 13 11 -2 12 6 14 23 19 12 11 9 9 8 7 8 7 5 5 5
11 12 15 11 7 5 9 15 12 10 11 12 10 18 4 14 21 -1 15 5 18 6 2 24 26 19 13 12 10 7 8 7 8 8 9 5 3 5 5 6 6 10 15 14 14 11 11 9 8 9 8 8 9 10
12 15 15 12 8 5 9 13 14 11 10 12 10 18 8 7 10 8 12 -6 13 13 3 9 7 21 15 8 9 8 9 8 8 2 4 10 13 10 16 19 14 13 10 11 12 11 10 9 10 11 13 12 12 12
15 15 14 11 9 8 9 8 15 14 14 12 9 6 15 1 12 10 13 3 -6 19 2 14 -1 15 38 6 9 8 6 12 5 10 13 12 8 -9 6 8 9 10 8 7 9 10 9 8 8 9 9 7 7 7
15 13 11 11 10 9 9 8 13 18 14 13 13 10 12 10 5 11 12 11 12 5 4 -17 12 -11 8 37 9 -2 23 11 10 29 27 27 -1 16 4 2 3 5 7 8 9 11 8 7 8 8 7 7 8 7
14 9 9 11 11 9 9 10 13 21 14 15 9 14 4 13 17 15 12 22 16 18 30 26 -2 -2 13 15 18 -5 9 8 12 26 -1 14 3 22 24 16 17 9 7 8 10 8 7 7 7 8 8 7 6 5
9 9 10 11 11 11 12 12 15 17 11 24 15 14 10 -4 23 8 33 14 3 30 -12 42 36 2 -4 13 3 28 -3 15 5 12 7 21 29 39 29 18 17 16 12 9 9 7 5 6 7 7 5 5 5 6
10 10 12 11 10 10 10 11 14 24 18 34 7 30 7 18 7 -6 10 -9 15 -37 21 25 22 27 6 -1 15 6 12 12 12 12 4 0 5 6 -1 11 19 14 10 12 9 5 5 7 6 5 5 6 7 10
10 7 12 17 19 21 23 22 25 19 15 13 23 7 2 13 36 -12 18 12 -3 13 1 -8 30 15 -1 16 -2 3 7 3 8 -1 -12 3 7 17 15 21 15 11 16 12 4 3 6 6 5 6 7 9 10 11
17 22 22 18 15 20 34 24 21 15 13 -11 -4 5 0 35 -22 57 -5 -6 11 27 -7 9 35 -12 43 -24 23 2 13 13 18 8 7 30 23 23 19 16 16 19 13 2 2 5 6 6 6 8 9 10 11 11
17 11 8 14 18 26 37 22 16 11 14 -35 32 -19 26 4 9 -13 20 12 21 35 32 19 20 8 14 -7 7 13 -10 11 19 -12 -6 12 16 16 14 15 15 10 1 1 5 7 6 7 7 8 9 11 11 11
21 15 19 19 22 34 26 22 4 16 10 -13 7 28 -25 53 -2 -2 5 -2 25 21 14 -10 4 1 16 44 -12 5 -10 -9 7 8 10 11 12 11 16 15 11 2 3 6 7 6 7 7 9 11 12 13 12 11
5 16 27 32 29 29 14 19 4 20 21 23 3 -1 22 -22 10 44 6 12 19 19 12 9 -23 5 -30 -9 28 37 10 11 3 8 11 14 9 16 12 6 3 6 7 7 7 7 7 9 12 13 14 13 13 12
26 22 22 31 28 11 14 20 -23 22 40 6 23 8 19 23 -11 -20 45 -5 -12 26 20 11 -2 35 5 -11 -6 1 26 40 18 17 24 13 14 10 5 7 6 9 7 7 8 8 10 12 12 14 13 13 13 13
21 20 19 20 27 11 21 -5 49 -73 62 15 10 10 12 -4 17 23 -9 39 4 17 20 8 -18 -21 9 41 29 -2 22 19 22 13 14 14 5 11 7 6 8 8 7 8 8 10 13 13 13 13 13 12 13 14
21 21 16 8 41 -2 9 9 15 39 -10 20 33 16 7 2 -11 10 16 -4 11 17 3 -0 22 0 -6 -3 32 17 9 8 17 12 26 17 7 8 10 9 8 8 8 9 11 13 13 13 11 12 11 9 9 12
26 28 42 38 32 -18 31 23 -3 17 36 3 11 31 15 17 14 -6 -23 15 18 11 -11 18 22 15 -2 1 6 1 19 28 11 -1 0 6 9 12 12 8 8 8 9 11 13 12 12 11 10 9 8 6 5 4
16 19 63 -26 -0 -23 41 51 -2 17 17 21 9 23 25 23 27 27 16 -1 -10 31 7 9 21 9 -0 17 10 9 10 7 7 16 9 8 7 10 11 9 9 9 12 12 12 11 10 11 9 8 6 5 7 7
39 21 -8 -7 22 15 -6 14 26 17 -14 28 22 -6 27 10 12 13 1 12 19 -26 9 30 20 10 8 -10 -3 17 17 12 7 9 10 10 10 9 8 8 10 12 13 10 10 10 9 9 10 8 6 6 7 7
-44 7 7 26 26 23 19 10 9 -5 6 5 1 1 5 21 16 19 1 1 24 19 0 2 29 8 7 19 26 11 5 6 10 11 10 10 9 9 10 10 13 11 11 11 9 8 9 10 8 7 7 8 8 8
-19 16 3 61 14 20 34 4 23 3 14 9 22 10 16 2 16 15 20 -6 -2 14 19 9 22 20 23 1 16 6 5 10 10 12 12 10 9 9 10 13 10 9 10 9 9 10 8 7 7 7 8 8 9 10
30 35 0 19 37 13 10 3 19 10 10 -5 15 3 3 -11 12 28 5 8 31 33 18 14 22 27 12 29 13 7 8 7 10 12 9 8 9 10 11 9 9 6 9 9 7 7 8 8 9 9 9 11 11 11
37 26 8 15 15 17 23 8 18 9 25 12 22 13 -5 -3 20 24 37 23 29 14 24 17 32 3 22 30 31 11 4 12 14 10 9 9 11 10 8 6 8 10 9 6 7 10 10 10 10 10 11 12 14 15
31 22 10 6 9 27 5 9 -13 6 1 -5 8 26 18 14 5 -14 -0 26 11 14 9 18 5 15 40 10 1 4 11 10 8 8 10 11 8 5 9 10 8 9 9 11 12 13 12 12 12 14 14 14 15 17
-7 13 17 6 16 3 4 9 11 1 18 16 19 7 8 10 17 9 17 18 17 15 12 3 21 24 24 13 11 13 10 7 9 10 8 7 9 8 7 8 10 11 11 10 11 12 13 15 15 17 17 17 19 16
8 33 10 36 20 -12 33 8 17 20 1 14 19 24 8 18 20 17 -2 24 3 26 18 8 23 18 20 19 16 5 7 8 7 9 8 7 7 8 9 12 11 10 9 12 16 16 17 19 20 21 21 20 21 20
-15 -14 -1 20 35 18 -32 35 13 -0 15 31 14 6 13 11 12 35 16 10 22 27 22 29 32 24 18 8 5 7 8 9 7 7 7 8 10 11 11 11 12 13 15 20 22 17 14 14 18 21 20 19 18 25
13 14 16 4 8 36 28 30 27 22 18 20 26 26 29 28 28 29 29 23 28 23 26 17 7 5 4 7 9 7 6 7 8 8 9 10 10 11 13 14 16 17 19 20 18 16 18 27 30 29 24 19 20 19
Height
3048 3047 3046 3046 3043 3041 3039 3036 3036 3033 3029 3030 3032 3028 3025 3023 3024 3026 3029 3031 3032 3032 3031 3029 3029 3030 3032 3033 3035 3037 3040 3039 3040 3040 3040 3039 3039 3039 3038 3037 3036 3036 3035 3035 3035 3035 3035 3033 3034 3035 3036 3034 3034 3035
3042 3041 3039 3038 3038 3038 3035 3035 3034 3033 3029 3028 3028 3029 3026 3023 3023 3024 3027 3028 3029 3030 3031 3029 3028 3028 3030 3031 3034 3035 3037 3037 3039 3039 3039 3039 3038 3038 3037 3037 3035 3035 3035 3034 3035 3035 3033 3033 3032 3033 3033 3033 3034 3034
3035 3035 3033 3033 3031 3031 3030 3029 3027 3025 3026 3023 3025 3025 3027 3025 3022 3023 3023 3025 3027 3027 3028 3026 3026 3027 3027 3029 3031 3034 3036 3037 3037 3038 3038 3038 3037 3037 3035 3034 3033 3032 3032 3031 3032 3031 3031 3031 3032 3032 3032 3031 3032 3032
3027 3026 3025 3025 3025 3025 3026 3025 3024 3025 3024 3021 3020 3022 3022 3024 3023 3021 3022 3022 3025 3026 3025 3025 3024 3024 3025 3026 3028 3031 3033 3034 3035 3036 3036 3036 3036 3035 3033 3032 3030 3030 3029 3028 3028 3028 3029 3029 3029 3030 3030 3031 3031 3032
3020 3017 3017 3017 3018 3018 3019 3019 3018 3019 3019 3019 3016 3018 3018 3019 3020 3020 3021 3020 3022 3026 3024 3023 3021 3022 3022 3023 3025 3027 3030 3032 3033 3033 3034 3034 3033 3033 3030 3028 3024 3024 3025 3026 3026 3026 3027 3028 3028 3028 3028 3028 3029 3029
3011 3008 3007 3007 3009 3010 3013 3014 3014 3014 3014 3014 3013 3013 3013 3014 3016 3019 3020 3020 3020 3021 3022 3020 3019 3018 3019 3021 3022 3024 3026 3028 3029 3030 3031 3029 3030 3031 3027 3023 3022 3021 3021 3022 3023 3024 3024 3025 3025 3026 3026 3026 3027 3026
3001 2999 2998 2998 2999 3000 3002 3003 3005 3006 3007 3008 3009 3008 3008 3010 3011 3015 3019 3018 3015 3017 3019 3018 3014 3013 3014 3017 3019 3021 3023 3024 3026 3026 3025 3025 3026 3026 3022 3018 3019 3018 3018 3019 3019 3020 3021 3022 3022 3022 3022 3022 3022 3022
2989 2989 2988 2989 2991 2991 2992 2995 2997 2997 3000 3002 3003 3003 3003 3004 3007 3010 3013 3015 3013 3014 3016 3014 3009 3009 3010 3012 3015 3017 3019 3021 3021 3021 3020 3020 3020 3019 3015 3014 3014 3015 3015 3015 3016 3017 3017 3018 3018 3018 3018 3018 3018 3018
2976 2976 2977 2978 2979 2980 2982 2983 2987 2987 2990 2994 2996 2996 2997 2997 3000 3004 3008 3010 3012 3013 3008 3006 3006 3007 3006 3007 3011 3014 3016 3016 3017 3014 3015 3016 3011 3008 3009 3009 3010 3011 3011 3012 3013 3013 3014 3015 3015 3015 3015 3014 3013 3012
2963 2964 2965 2966 2968 2969 2969 2972 2977 2979 2980 2984 2988 2990 2989 2989 2996 3000 3001 3003 3003 3003 2999 2999 3001 3002 3005 3004 3006 3011 3012 3013 3010 3009 3008 3004 2997 3002 3003 3004 3005 3006 3007 3007 3008 3009 3010 3010 3011 3011 3011 3010 3008 3006
2948 2950 2952 2954 2955 2956 2958 2961 2965 2969 2969 2971 2976 2980 2983 2985 2989 2991 2992 2991 2993 2990 2987 2990 2996 2999 3000 3002 3003 3006 3005 3006 3004 3002 3002 2993 2986 2993 2994 2996 2997 2999 3001 3002 3004 3004 3005 3006 3006 3006 3005 3004 3002 3000
2933 2935 2938 2940 2942 2945 2948 2951 2954 2955 2960 2965 2969 2973 2979 2982 2982 2982 2977 2979 2976 2978 2976 2979 2986 2994 2997 2998 2999 3001 3001 3001 2996 2995 2994 2983 2983 2984 2987 2989 2991 2993 2995 2997 2999 3000 3001 3001 3001 3000 2999 2998 2996 2993
2918 2921 2925 2928 2929 2932 2935 2939 2943 2945 2951 2957 2963 2968 2971 2971 2968 2964 2960 2960 2962 2962 2969 2977 2981 2984 2990 2994 2994 2996 2993 2991 2990 2986 2979 2974 2979 2980 2982 2983 2984 2987 2989 2992 2994 2995 2996 2996 2996 2995 2993 2992 2990 2986
2904 2905 2909 2912 2913 2917 2920 2927 2930 2935 2944 2949 2951 2951 2951 2945 2942 2940 2941 2947 2954 2959 2968 2974 2976 2978 2980 2985 2987 2986 2984 2983 2978 2973 2964 2971 2972 2974 2975 2977 2979 2981 2984 2987 2989 2991 2991 2990 2990 2989 2987 2985 2982 2978
2889 2891 2892 2894 2898 2903 2908 2915 2920 2925 2932 2934 2935 2930 2924 2927 2928 2933 2937 2942 2949 2955 2961 2966 2972 2974 2974 2977 2976 2975 2972 2966 2960 2959 2963 2964 2965 2967 2970 2972 2974 2977 2980 2983 2985 2985 2985 2984 2983 2982 2980 2977 2974 2972
2874 2875 2876 2882 2885 2889 2898 2906 2910 2912 2914 2915 2910 2909 2910 2919 2921 2926 2930 2937 2942 2947 2953 2959 2963 2968 2967 2965 2960 2958 2954 2950 2953 2957 2959 2960 2961 2963 2965 2968 2971 2974 2976 2978 2979 2979 2979 2978 2977 2975 2973 2971 2968 2965
2858 2855 2865 2870 2874 2880 2888 2895 2897 2893 2895 2892 2890 2897 2905 2909 2918 2923 2928 2932 2936 2939 2944 2948 2951 2954 2953 2949 2947 2945 2944 2950 2951 2954 2955 2957 2959 2960 2962 2965 2967 2970 2972 2973 2974 2974 2973 2972 2970 2968 2966 2964 2961 2958
2841 2848 2853 2857 2863 2869 2876 2879 2881 2879 2875 2877 2885 2892 2899 2905 2911 2916 2921 2926 2929 2931 2936 2937 2944 2943 2940 2936 2938 2943 2945 2946 2947 2950 2952 2954 2955 2957 2959 2961 2964 2966 2967 2968 2968 2968 2967 2966 2964 2962 2960 2958 2955 2953
2831 2836 2841 2847 2851 2856 2860 2863 2867 2863 2863 2872 2881 2890 2895 2900 2907 2912 2915 2919 2922 2925 2928 2930 2934 2933 2934 2936 2939 2940 2939 2940 2943 2944 2946 2949 2951 2953 2955 2957 2959 2961 2962 2962 2962 2962 2961 2960 2958 2956 2954 2953 2950 2948
2818 2824 2830 2837 2840 2846 2849 2853 2856 2859 2859 2865 2873 2883 2890 2895 2901 2906 2910 2911 2914 2917 2919 2919 2918 2925 2930 2933 2934 2938 2936 2937 2939 2939 2941 2944 2946 2948 2950 2952 2954 2955 2956 2956 2956 2955 2955 2954 2953 2951 2950 2948 2946 2944
2805 2812 2820 2824 2828 2836 2839 2842 2847 2853 2857 2860 2867 2874 2881 2889 2895 2897 2901 2905 2903 2902 2906 2909 2914 2920 2925 2929 2929 2930 2932 2935 2936 2938 2940 2941 2942 2944 2945 2947 2948 2950 2951 2950 2950 2949 2948 2948 2947 2946 2945 2944 2942 2940
2787 2799 2806 2810 2817 2827 2831 2836 2844 2847 2853 2858 2864 2868 2872 2878 2885 2891 2895 2893 2893 2898 2901 2903 2908 2913 2920 2923 2924 2925 2928 2931 2932 2933 2935 2936 2937 2939 2941 2942 2943 2944 2945 2944 2944 2944 2943 2943 2942 2941 2941 2940 2938 2936
2777 2789 2797 2805 2813 2821 2827 2834 2841 2845 2848 2852 2859 2864 2866 2870 2875 2883 2885 2885 2887 2891 2893 2896 2900 2905 2909 2913 2919 2922 2924 2927 2929 2930 2931 2932 2933 2934 2936 2937 2938 2938 2938 2939 2939 2939 2938 2938 2937 2937 2936 2935 2934 2932
2780 2789 2797 2805 2810 2817 2825 2829 2834 2841 2847 2848 2852 2856 2860 2865 2869 2873 2872 2874 2879 2884 2887 2890 2892 2896 2901 2907 2912 2915 2920 2923 2924 2926 2927 2928 2929 2930 2931 2932 2932 2932 2933 2933 2933 2933 2933 2933 2932 2932 2931 2929 2928 2926
2788 2796 2800 2802 2807 2816 2821 2826 2830 2836 2838 2843 2848 2850 2853 2858 2860 2861 2862 2865 2871 2875 2880 2883 2884 2888 2894 2900 2905 2909 2914 2916 2919 2921 2922 2923 2924 2925 2926 2926 2927 2927 2928 2928 2928 2928 2928 2927 2926 2925 2925 2924 2923 2921
2790 2793 2797 2799 2805 2813 2816 2822 2827 2830 2834 2838 2841 2845 2848 2849 2851 2852 2853 2858 2863 2867 2871 2875 2877 2881 2887 2894 2898 2902 2906 2909 2912 2915 2917 2918 2919 2920 2921 2921 2922 2923 2923 2922 2922 2923 2922 2921 2920 2919 2918 2917 2916 2914
2789 2792 2794 2798 2802 2808 2814 2820 2823 2827 2829 2833 2835 2838 2841 2843 2844 2846 2848 2851 2854 2859 2864 2867 2870 2875 2881 2886 2889 2893 2899 2903 2906 2909 2911 2912 2913 2914 2916 2916 2917 2917 2916 2916 2916 2916 2915 2914 2912 2911 2910 2909 2907 2906
2791 2792 2797 2801 2805 2809 2812 2816 2819 2822 2825 2826 2829 2829 2832 2834 2838 2840 2841 2844 2847 2852 2855 2859 2864 2869 2874 2878 2883 2889 2894 2897 2900 2904 2905 2907 2909 2909 2910 2910 2910 2909 2909 2909 2908 2907 2906 2905 2903 2901 2900 2899 2898 2898
2792 2793 2796 2799 2802 2804 2806 2809 2811 2814 2817 2820 2821 2822 2823 2828 2833 2835 2837 2840 2842 2846 2850 2854 2859 2863 2867 2871 2877 2882 2887 2891 2896 2898 2900 2902 2903 2904 2904 2903 2903 2902 2901 2900 2899 2898 2897 2895 2893 2891 2890 2890 2889 2888
2793 2795 2796 2797 2799 2801 2804 2805 2807 2809 2811 2813 2816 2818 2819 2822 2825 2829 2833 2836 2838 2842 2846 2850 2853 2857 2862 2866 2872 2878 2882 2887 2891 2893 2895 2896 2897 2897 2896 2896 2895 2893 2892 2890 2889 2888 2886 2884 2882 2881 2880 2879 2880 2880
2791 2792 2794 2795 2797 2797 2799 2801 2803 2806 2809 2810 2813 2816 2817 2819 2822 2825 2829 2831 2834 2837 2839 2843 2848 2853 2859 2866 2871 2875 2879 2883 2885 2887 2889 2889 2889 2889 2888 2887 2886 2884 2882 2881 2878 2877 2875 2873 2872 2871 2870 2870 2871 2871
2789 2791 2793 2794 2795 2796 2798 2799 2801 2804 2806 2806 2808 2811 2813 2815 2817 2820 2823 2826 2828 2832 2837 2842 2847 2852 2858 2863 2868 2872 2875 2878 2880 2882 2882 2882 2882 2881 2880 2879 2877 2875 2873 2871 2869 2867 2866 2864 2863 2862 2862 2862 2863 2864
2787 2789 2791 2791 2791 2793 2795 2797 2798 2799 2802 2803 2805 2807 2809 2811 2812 2816 2819 2823 2829 2833 2838 2842 2847 2853 2857 2861 2865 2868 2871 2874 2875 2876 2875 2875 2874 2873 2872 2870 2868 2866 2864 2861 2860 2859 2857 2854 2853 2853 2854 2856 2858 2860